Torna al catalogo

STARLINK-2252

AttivoComunicazioniVLEO
NORAD 48595·PAYLOAD·🇺🇸 United States

Lanciato May 15, 2021 da Cape Canaveral Space Force Station

Loading…

Prossimi Passaggi (prossime 24 ore)

TLE

AggiornatoSource: CelesTrak SupGP

Epoca: Sep 14, 2026, 21:19 UTC

1 48595C 21041AU  26257.88868056 -.00033616  00000+0 -10810-2 0  2579
2 48595  53.1594 348.4138 0001290  74.6273 221.1994 15.31718318    19

Traccia STARLINK-2252 in tempo reale con AllMySat

Download on the App Store